Theta_e
324 326 330 332 331 332 327 319 317 316 318 319 318 316 315 314 313 312 310 315 323 325 325 323 320 318 314 313 312 312 311 310 309 308 308 308 308 308 308 308 308 308 308
326 328 328 327 326 327 324 316 314 315 316 314 313 313 312 312 312 311 307 308 315 318 319 319 317 314 313 312 311 310 309 309 307 306 306 306 306 306 306 306 307 307 307
327 329 324 322 322 320 313 312 311 314 310 310 308 307 307 308 309 309 307 304 303 309 312 313 312 311 310 310 309 308 307 306 305 305 304 304 304 305 305 305 306 306 306
328 323 321 318 320 317 313 310 310 308 307 305 303 303 303 304 305 304 303 302 300 299 303 306 306 306 306 306 306 305 305 304 304 303 303 303 303 303 303 304 304 305 305
326 322 317 316 319 316 313 310 308 307 303 302 301 300 300 300 302 301 296 294 295 294 293 298 299 300 301 302 302 303 303 303 302 302 301 301 302 302 302 303 303 304 304
322 318 313 312 314 313 310 308 306 305 302 300 299 297 297 299 299 296 294 293 291 291 289 289 289 290 295 297 298 299 300 300 300 300 300 300 300 301 301 302 302 303 304
317 312 311 309 310 309 307 307 305 300 297 296 295 294 294 296 296 294 293 291 290 290 288 288 286 286 287 291 293 295 297 298 298 298 299 299 299 300 300 301 302 303 303
314 311 309 308 307 306 306 306 302 297 296 297 295 293 289 290 293 294 293 292 289 289 288 287 286 286 285 285 286 290 292 294 296 296 297 298 298 299 300 300 301 302 302
309 307 307 307 307 305 304 305 301 299 295 296 297 297 293 291 290 292 291 291 289 288 287 287 286 285 284 283 286 286 289 291 292 294 295 296 297 298 299 299 300 301 301
305 304 304 304 305 304 304 303 303 300 299 296 298 300 297 294 290 286 290 290 289 289 287 286 285 284 284 283 286 286 287 289 290 291 292 294 295 296 298 298 299 299 300
301 301 301 302 302 303 303 303 301 300 300 298 296 294 293 292 292 289 286 286 288 287 287 286 285 284 284 283 282 285 288 288 289 289 290 292 293 295 296 297 298 298 299
297 298 298 300 299 299 300 300 299 299 296 295 295 292 291 289 289 289 287 285 285 286 287 286 285 284 284 283 285 287 287 287 288 289 290 290 292 293 294 295 296 297 297
294 295 296 295 296 296 296 296 295 294 293 292 293 292 292 291 291 290 286 284 284 285 286 287 286 285 286 283 283 287 286 287 288 289 289 289 291 291 292 293 294 295 295
297 295 295 294 294 293 292 292 292 291 291 291 289 290 289 290 290 289 286 283 281 281 282 283 285 286 285 283 283 287 280 285 287 289 289 289 290 290 290 291 292 293 294
295 293 292 290 291 290 290 290 289 288 289 289 289 289 289 288 287 286 285 283 282 278 280 283 283 286 285 284 284 281 280 283 286 287 288 288 288 289 289 290 291 292 293
293 291 290 289 289 289 289 289 288 289 289 289 290 288 287 286 285 285 284 283 282 280 278 280 282 282 284 285 284 282 280 284 285 286 286 287 287 287 288 289 290 290 291
291 289 289 289 289 288 289 289 289 289 289 288 287 286 286 285 283 282 283 283 282 281 277 278 281 281 281 281 281 280 280 279 279 284 285 285 286 286 287 288 288 288 289
290 290 290 290 290 289 290 290 289 289 287 286 285 284 284 285 282 282 282 281 280 280 279 277 278 279 279 279 278 278 279 279 278 281 284 285 285 285 286 286 286 286 286
290 291 292 291 290 290 289 289 288 287 285 285 285 284 283 283 281 281 280 280 280 281 279 279 278 278 278 278 278 277 277 278 278 281 284 285 284 284 284 284 284 284 284
291 291 291 291 290 290 289 288 287 285 285 285 285 284 283 282 282 281 281 280 280 279 279 278 278 278 278 279 278 278 277 276 276 277 280 280 280 281 283 283 282 281 281
290 290 289 288 288 287 287 285 284 283 283 283 283 283 283 283 285 285 282 281 279 278 278 277 277 277 277 277 277 277 276 277 275 274 275 275 275 274 273 277 277 278 280
286 286 285 285 285 286 287 287 286 283 283 282 282 282 283 283 284 287 287 288 284 279 278 278 278 277 278 278 279 277 276 271 272 274 273 271 272 271 272 273 277 278 280
284 284 284 283 283 283 287 287 288 285 284 284 283 283 282 282 282 281 284 286 286 287 287 282 279 278 278 279 278 277 275 275 275 275 269 270 271 270 272 273 277 278 279
283 282 282 282 282 283 286 286 286 284 283 283 283 283 283 283 283 282 281 280 280 281 281 282 282 282 282 282 280 279 277 275 270 270 271 268 270 269 269 270 275 277 278
283 283 283 282 282 282 285 286 284 282 282 282 282 282 282 282 284 286 283 282 281 282 285 286 286 287 287 287 286 283 279 269 271 272 272 269 267 264 267 267 269 274 276
282 282 282 282 281 280 285 285 284 282 280 281 281 282 283 284 285 285 283 282 281 281 282 282 282 283 284 283 286 283 281 272 271 272 270 267 264 264 259 263 265 266 267
Wind_Speed
5 4 6 5 4 5 4 5 5 4 4 6 6 7 6 8 9 5 4 14 12 12 14 13 11 11 7 8 9 9 9 10 9 10 10 11 10 11 11 12 12 12 12
5 3 5 4 3 4 4 5 5 4 5 5 6 6 6 6 8 8 5 7 15 13 13 12 9 7 8 8 8 8 8 9 8 8 9 9 9 10 12 12 13 13 14
6 8 6 4 4 4 7 5 4 5 5 5 6 5 5 5 5 8 6 5 7 14 11 10 10 8 7 7 7 7 7 6 6 7 8 9 10 10 11 12 13 14 14
6 8 6 4 5 5 5 4 4 5 5 5 4 4 4 4 5 6 5 5 4 5 7 10 9 8 7 6 6 5 5 5 6 7 8 9 10 11 11 12 13 14 13
9 8 6 5 5 4 5 5 3 5 5 5 5 4 4 3 4 4 6 6 6 5 3 7 8 7 6 5 4 4 4 5 6 7 8 9 10 11 12 12 13 13 14
8 7 5 5 5 4 4 4 5 3 4 4 6 4 3 2 4 4 5 4 3 5 5 5 4 3 5 3 3 4 4 5 6 7 8 9 10 10 11 12 13 14 14
8 6 5 6 5 5 5 6 4 6 3 5 5 2 1 2 2 4 4 4 4 4 4 3 2 2 2 3 2 2 3 5 6 6 8 9 10 11 12 13 14 15 16
8 7 7 7 6 6 6 6 7 4 3 5 4 3 3 2 2 4 4 5 6 4 4 4 4 3 2 2 3 3 3 6 7 8 9 10 11 12 13 14 15 16 17
7 7 7 7 8 6 7 8 7 6 4 5 6 4 3 4 3 2 5 4 5 4 5 5 5 5 4 3 4 2 4 6 7 9 10 11 12 13 14 15 15 16 18
7 6 6 6 7 5 7 7 6 4 5 5 2 4 2 2 3 1 2 4 5 6 6 5 5 6 6 4 7 7 7 7 8 9 11 12 13 14 15 16 17 18 20
6 6 6 6 6 4 6 7 6 6 4 4 3 2 1 1 1 2 3 3 3 4 5 6 5 5 6 6 4 6 10 8 9 10 12 14 14 16 16 17 17 19 20
4 7 7 6 6 5 6 5 5 6 4 3 3 4 4 4 3 3 3 3 4 4 5 5 5 5 5 5 7 9 10 10 11 12 14 14 16 16 17 17 19 20 21
3 7 7 7 6 6 6 6 5 5 4 3 3 3 2 1 1 1 2 2 3 3 4 5 5 5 5 5 5 8 10 12 13 15 15 16 17 17 18 18 19 21 22
7 8 7 7 7 7 6 6 5 4 5 5 5 2 1 2 2 1 2 3 2 3 3 6 4 6 5 5 7 8 6 13 15 17 17 18 19 18 18 20 21 22 23
7 8 8 8 8 8 7 7 5 5 6 3 5 3 2 2 1 1 1 2 4 3 3 4 4 5 4 5 7 6 7 12 16 19 18 20 20 19 20 21 23 24 24
11 11 10 8 7 6 6 7 6 6 5 3 3 3 4 2 1 1 2 2 3 4 4 3 5 3 5 5 7 7 7 14 17 20 20 20 20 20 21 23 24 25 25
11 12 13 12 9 6 5 7 4 7 4 3 5 3 2 3 3 3 3 3 3 3 4 4 3 3 5 6 6 6 7 8 8 19 20 21 20 21 22 24 25 26 25
10 11 10 8 8 10 5 4 5 5 5 6 4 4 5 3 5 4 4 5 4 4 4 9 3 4 6 7 6 7 8 7 7 14 21 22 21 22 22 24 23 24 26
12 11 9 6 8 4 7 5 4 5 4 4 4 4 5 5 5 4 5 6 5 5 5 6 9 4 4 4 6 6 7 9 7 15 21 22 22 23 23 23 21 25 28
8 8 6 4 5 6 3 4 3 2 2 3 4 5 6 6 8 7 7 7 6 6 6 8 9 9 6 6 6 10 9 6 8 7 14 15 17 21 23 21 21 26 30
7 6 7 5 6 5 2 1 1 2 3 5 5 5 6 7 12 11 7 6 6 7 7 9 11 9 9 7 10 5 9 9 7 6 7 8 8 7 7 14 18 26 27
9 7 6 5 5 4 6 5 4 4 4 5 5 5 6 8 12 17 18 19 14 9 11 11 11 12 16 11 10 9 10 3 9 5 5 6 3 5 6 7 21 27 28
9 8 7 6 6 6 10 10 8 4 5 5 6 7 7 5 8 8 15 19 19 23 25 17 17 15 17 13 11 12 10 10 13 7 3 10 5 9 8 9 23 25 28
7 6 8 8 7 6 13 13 12 5 6 6 6 7 8 10 10 10 11 11 12 12 15 13 17 19 17 15 11 12 13 11 3 2 4 11 4 9 5 6 22 25 28
8 8 6 7 6 5 16 16 12 6 7 8 8 7 8 11 16 22 15 15 15 14 14 24 28 30 31 30 24 13 10 5 11 9 6 6 2 3 5 8 9 20 20
8 6 9 9 11 10 19 21 17 7 9 8 10 11 15 17 23 25 16 15 16 15 15 15 13 17 21 20 27 18 14 11 10 9 7 5 2 1 5 3 4 4 7
Wind_Direction
169 196 172 152 137 143 135 106 120 106 102 82 69 76 74 98 101 91 54 43 64 105 111 102 92 83 83 72 61 51 49 50 38 25 19 16 10 7 6 1 353 359 351
173 154 105 107 145 118 102 120 125 125 92 86 79 75 76 85 116 110 84 57 65 75 82 82 83 88 78 73 63 55 45 39 35 24 11 5 1 1 3 353 349 349 347
179 131 126 132 112 99 98 96 111 103 96 89 92 87 88 90 105 128 131 104 67 63 79 94 92 86 79 73 64 47 40 30 22 16 2 355 352 354 354 349 345 343 341
166 118 128 146 130 123 127 134 132 112 115 118 120 111 96 85 86 83 94 110 126 94 77 91 90 88 80 70 61 40 24 14 10 3 355 350 343 348 346 341 335 334 337
126 126 133 152 148 143 140 150 133 133 134 125 118 96 94 96 111 86 77 79 97 119 112 104 92 81 76 69 61 42 18 5 1 351 345 339 336 337 335 332 324 326 325
122 123 135 143 136 139 136 125 127 113 123 132 107 95 116 140 122 124 129 117 120 130 153 157 142 105 92 78 48 25 3 355 351 341 330 326 328 326 325 322 319 319 319
130 138 141 144 144 149 148 135 117 119 94 122 108 81 64 139 138 139 143 148 160 163 158 151 147 155 164 153 66 1 343 340 334 325 316 314 320 320 320 317 316 318 317
141 149 159 163 157 143 144 145 138 136 123 181 150 143 172 284 246 193 179 179 183 166 183 184 159 176 183 147 158 251 315 328 320 318 309 314 319 316 313 314 314 312 309
147 161 165 156 159 149 160 161 155 151 149 211 223 162 147 214 151 195 208 200 179 182 192 194 190 198 200 204 206 249 236 290 308 306 306 311 308 306 306 307 309 306 304
150 162 156 156 161 148 161 164 166 163 142 176 221 229 188 126 165 206 245 215 199 205 199 204 199 202 201 210 204 206 228 267 288 298 302 298 300 301 303 306 308 305 305
152 159 156 160 152 152 154 163 165 177 173 154 163 113 111 267 246 148 212 251 249 221 209 203 199 202 205 200 213 218 226 257 273 285 290 291 295 297 299 303 305 300 300
159 159 152 158 145 145 152 162 162 174 179 136 155 159 168 168 200 190 211 205 204 232 210 210 206 205 206 202 213 218 227 258 273 277 277 284 287 292 295 299 298 297 297
175 173 159 159 153 146 150 141 139 125 132 130 157 175 143 121 97 88 141 232 207 235 204 225 210 198 208 200 210 213 230 254 272 273 270 277 285 286 285 288 289 290 292
174 153 158 141 134 127 116 117 115 113 112 128 117 95 111 114 109 135 182 164 284 266 232 237 224 200 193 193 203 215 216 252 270 266 269 273 284 281 284 287 289 288 289
137 136 129 122 122 123 128 125 122 117 114 111 108 119 108 212 119 138 133 172 172 236 258 252 221 211 189 188 204 206 221 238 260 270 273 275 276 281 282 286 285 285 287
137 136 126 125 116 118 117 119 130 112 127 120 97 183 206 155 159 149 210 214 200 184 242 242 240 200 196 208 213 214 220 229 247 263 268 271 275 277 280 285 287 290 291
138 138 139 133 125 118 126 114 104 113 137 125 201 199 202 187 205 223 230 225 227 193 233 284 238 235 212 216 230 221 221 228 234 246 263 270 272 276 279 283 287 290 290
133 135 129 119 138 135 133 145 143 105 184 190 182 202 232 226 237 241 236 232 232 225 217 259 251 248 230 232 227 230 234 228 227 241 259 266 267 274 278 281 285 287 289
119 110 102 116 133 148 139 126 157 180 193 207 207 221 238 231 242 230 232 238 233 242 238 254 265 237 252 243 255 249 228 239 232 240 255 264 266 271 276 278 283 285 292
79 100 100 118 109 107 112 130 179 165 211 241 232 231 235 232 245 239 234 231 227 236 246 255 263 267 252 247 234 259 260 231 243 230 245 243 252 259 270 275 282 290 294
65 52 75 73 79 84 74 149 170 251 258 266 251 243 242 239 244 241 246 244 226 243 249 257 264 268 260 254 244 245 253 257 239 212 242 248 252 248 255 275 281 284 283
66 58 61 60 55 44 27 1 314 295 271 261 273 256 245 245 253 255 256 254 239 238 250 252 262 259 261 260 257 247 249 243 275 205 229 250 217 247 255 261 273 275 281
58 48 40 35 31 21 3 348 324 308 293 293 288 282 287 267 259 262 261 263 260 255 252 256 261 255 267 260 263 258 243 242 253 238 165 260 203 248 247 249 266 275 280
45 33 38 31 26 11 358 347 333 313 304 292 285 287 284 290 281 280 280 275 268 258 258 262 260 267 264 268 258 259 262 259 303 207 143 266 237 252 242 241 262 271 278
46 41 33 32 28 13 21 16 9 348 335 325 311 305 300 300 300 305 303 297 291 283 280 274 270 270 270 269 266 270 255 221 257 251 191 251 234 262 256 254 251 262 266
50 43 50 46 44 36 32 29 25 9 358 345 340 335 329 329 326 322 313 304 296 295 293 284 273 269 270 267 262 255 263 239 244 268 182 207 159 142 303 240 222 240 271